When you browse on this site, cookies collect data to enhance your experience and personalize the content and advertising you see.
Visit our Privacy Policy to learn more. By continuing to use the site, you agree to this use of cookies and data.
  • En España
  • Lista de países
  • Para 7 días
  • Temperatura del agua
  • El tiempo en el mapa
  • Informadores
  • user-avatar
    Iniciar sesión

    Tiempo cada hora Berat

    Hoy, 7 Abril, Martes

    Tiempo Temperatura Precipitaciones Viento Presión Humedad
    00:00 +9°C° 0 mm 2 mps 751 mmHg 70%
    01:00 +9°C° 0 mm 2 mps 751 mmHg 72%
    02:00 +9°C° 0 mm 2 mps 751 mmHg 71%
    03:00 +8°C° 0 mm 2 mps 751 mmHg 69%
    04:00 +8°C° 0 mm 2 mps 751 mmHg 68%
    05:00 +9°C° 0 mm 2 mps 751 mmHg 65%
    06:00 +10°C° 0 mm 2 mps 751 mmHg 63%
    07:00 +12°C° 0 mm 2 mps 751 mmHg 61%
    08:00 +13°C° 0 mm 3 mps 751 mmHg 51%
    09:00 +14°C° 0 mm 4 mps 752 mmHg 41%
    10:00 +17°C° 0 mm 4 mps 752 mmHg 31%
    11:00 +17°C° 0 mm 4 mps 752 mmHg 30%
    12:00 +17°C° 0 mm 5 mps 752 mmHg 30%
    13:00 +19°C° 0 mm 5 mps 751 mmHg 29%
    14:00 +17°C° 0 mm 5 mps 751 mmHg 32%
    15:00 +18°C° 0 mm 4 mps 751 mmHg 34%
    16:00 +17°C° 0 mm 4 mps 751 mmHg 36%
    17:00 +15°C° 0 mm 4 mps 751 mmHg 40%
    18:00 +13°C° 0 mm 3 mps 752 mmHg 44%
    19:00 +11°C° 0 mm 3 mps 752 mmHg 48%
    20:00 +10°C° 0 mm 3 mps 752 mmHg 50%
    21:00 +10°C° 0 mm 3 mps 752 mmHg 52%
    22:00 +9°C° 0 mm 3 mps 752 mmHg 53%
    23:00 +9°C° 0 mm 2 mps 752 mmHg 55%

    Mañana, 8 Abril, Miércoles

    Tiempo Temperatura Precipitaciones Viento Presión Humedad
    00:00 +9°C° 0 mm 2 mps 752 mmHg 56%
    01:00 +8°C° 0 mm 2 mps 752 mmHg 57%
    02:00 +8°C° 0 mm 2 mps 752 mmHg 58%
    03:00 +8°C° 0 mm 2 mps 752 mmHg 58%
    04:00 +7°C° 0 mm 2 mps 752 mmHg 59%
    05:00 +8°C° 0 mm 2 mps 752 mmHg 59%
    06:00 +9°C° 0 mm 2 mps 752 mmHg 59%
    07:00 +10°C° 0 mm 2 mps 751 mmHg 59%
    08:00 +13°C° 0 mm 2 mps 751 mmHg 52%
    09:00 +14°C° 0 mm 3 mps 751 mmHg 45%
    10:00 +17°C° 0 mm 3 mps 751 mmHg 38%
    11:00 +17°C° 0 mm 3 mps 751 mmHg 36%
    12:00 +18°C° 0 mm 3 mps 751 mmHg 35%
    13:00 +19°C° 0 mm 3 mps 750 mmHg 33%
    14:00 +19°C° 0 mm 3 mps 750 mmHg 35%
    15:00 +18°C° 0 mm 3 mps 749 mmHg 37%
    16:00 +18°C° 0 mm 3 mps 749 mmHg 39%
    17:00 +16°C° 0 mm 2 mps 749 mmHg 46%
    18:00 +14°C° 0 mm 2 mps 749 mmHg 53%
    19:00 +12°C° 0 mm 1 mps 749 mmHg 60%
    20:00 +12°C° 0 mm 1 mps 749 mmHg 60%
    21:00 +11°C° 0 mm 1 mps 749 mmHg 60%
    22:00 +10°C° 0 mm 2 mps 749 mmHg 60%
    23:00 +9°C° 0 mm 2 mps 749 mmHg 58%

    Pasado mañana, 9 Abril, Jueves

    Tiempo Temperatura Precipitaciones Viento Presión Humedad
    00:00 +9°C° 0 mm 2 mps 749 mmHg 57%
    01:00 +9°C° 0 mm 2 mps 749 mmHg 56%
    02:00 +9°C° 0 mm 2 mps 749 mmHg 56%
    03:00 +8°C° 0 mm 2 mps 749 mmHg 56%
    04:00 +8°C° 0 mm 2 mps 748 mmHg 56%
    05:00 +9°C° 0 mm 2 mps 748 mmHg 56%
    06:00 +11°C° 0 mm 1 mps 748 mmHg 56%
    07:00 +12°C° 0 mm 1 mps 748 mmHg 57%
    08:00 +14°C° 0 mm 1 mps 748 mmHg 51%
    09:00 +16°C° 0 mm 1 mps 748 mmHg 45%
    10:00 +19°C° 0 mm 1 mps 748 mmHg 39%
    11:00 +19°C° 0 mm 2 mps 748 mmHg 39%
    12:00 +19°C° 0 mm 2 mps 748 mmHg 40%
    13:00 +20°C° 0 mm 3 mps 748 mmHg 41%
    14:00 +19°C° 0 mm 3 mps 747 mmHg 46%
    15:00 +18°C° 0 mm 3 mps 747 mmHg 51%
    16:00 +18°C° 0 mm 3 mps 747 mmHg 56%
    17:00 +16°C° 0 mm 2 mps 747 mmHg 63%
    18:00 +14°C° 0 mm 1 mps 747 mmHg 71%
    19:00 +12°C° 0 mm 1 mps 747 mmHg 78%
    20:00 +12°C° 0 mm 1 mps 747 mmHg 78%
    21:00 +11°C° 0 mm 0 mps 747 mmHg 78%
    22:00 +10°C° 0 mm 0 mps 747 mmHg 77%
    23:00 +10°C° 0 mm 0 mps 747 mmHg 76%

    10 Abril, Viernes

    Tiempo Temperatura Precipitaciones Viento Presión Humedad
    00:00 +10°C° 0 mm 0 mps 747 mmHg 75%
    01:00 +11°C° 0 mm 1 mps 747 mmHg 74%
    02:00 +11°C° 0 mm 1 mps 747 mmHg 73%
    03:00 +10°C° 0 mm 1 mps 747 mmHg 72%
    04:00 +10°C° 0 mm 1 mps 747 mmHg 72%
    05:00 +11°C° 0 mm 1 mps 747 mmHg 69%
    06:00 +13°C° 0 mm 1 mps 747 mmHg 67%
    07:00 +14°C° 0 mm 1 mps 747 mmHg 64%
    08:00 +15°C° 0 mm 1 mps 747 mmHg 58%
    09:00 +18°C° 0 mm 1 mps 747 mmHg 53%
    10:00 +20°C° 0 mm 1 mps 747 mmHg 48%
    11:00 +20°C° 0 mm 2 mps 747 mmHg 47%
    12:00 +20°C° 0 mm 2 mps 747 mmHg 46%
    13:00 +21°C° 0 mm 3 mps 747 mmHg 46%
    14:00 +20°C° 0 mm 3 mps 747 mmHg 50%
    15:00 +20°C° 0 mm 3 mps 746 mmHg 55%
    16:00 +19°C° 0 mm 3 mps 746 mmHg 59%
    17:00 +17°C° 0 mm 2 mps 746 mmHg 67%
    18:00 +16°C° 0 mm 1 mps 746 mmHg 74%
    19:00 +14°C° 0 mm 1 mps 746 mmHg 82%
    20:00 +12°C° 0 mm 0 mps 746 mmHg 81%
    21:00 +12°C° 0 mm 0 mps 747 mmHg 79%
    22:00 +12°C° 0 mm 0 mps 747 mmHg 78%
    23:00 +13°C° 0 mm 1 mps 747 mmHg 77%

    11 Abril, Sábado

    Tiempo Temperatura Precipitaciones Viento Presión Humedad
    00:00 +13°C° 0 mm 1 mps 747 mmHg 76%
    01:00 +12°C° 0 mm 1 mps 747 mmHg 75%
    02:00 +12°C° 0 mm 1 mps 747 mmHg 74%
    03:00 +12°C° 0 mm 1 mps 748 mmHg 74%
    04:00 +12°C° 0 mm 1 mps 748 mmHg 73%
    05:00 +13°C° 0 mm 1 mps 748 mmHg 70%
    06:00 +14°C° 0 mm 1 mps 748 mmHg 67%
    07:00 +15°C° 0 mm 1 mps 748 mmHg 64%
    08:00 +18°C° 0 mm 1 mps 748 mmHg 58%
    09:00 +20°C° 0 mm 1 mps 748 mmHg 52%
    10:00 +22°C° 0 mm 1 mps 748 mmHg 46%
    11:00 +22°C° 0 mm 1 mps 748 mmHg 46%
    12:00 +21°C° 0 mm 2 mps 748 mmHg 47%
    13:00 +22°C° 0 mm 3 mps 748 mmHg 47%
    14:00 +21°C° 0.1 mm 3 mps 748 mmHg 53%
    15:00 +20°C° 0.1 mm 3 mps 747 mmHg 58%
    16:00 +20°C° 0.1 mm 2 mps 747 mmHg 63%
    17:00 +18°C° 0.1 mm 2 mps 747 mmHg 70%
    18:00 +16°C° 0.1 mm 1 mps 747 mmHg 77%
    19:00 +14°C° 0.1 mm 0 mps 747 mmHg 83%
    20:00 +14°C° 0.1 mm 0 mps 747 mmHg 83%
    21:00 +13°C° 0.1 mm 0 mps 748 mmHg 82%
    22:00 +13°C° 0.1 mm 0 mps 748 mmHg 81%
    23:00 +13°C° 0 mm 0 mps 748 mmHg 80%

    12 Abril, Domingo

    Tiempo Temperatura Precipitaciones Viento Presión Humedad
    00:00 +13°C° 0 mm 0 mps 748 mmHg 79%
    01:00 +13°C° 0 mm 0 mps 748 mmHg 78%
    02:00 +13°C° 0 mm 0 mps 748 mmHg 79%
    03:00 +12°C° 0 mm 0 mps 747 mmHg 79%
    04:00 +13°C° 0 mm 1 mps 747 mmHg 80%
    05:00 +13°C° 0 mm 0 mps 747 mmHg 77%
    06:00 +14°C° 0 mm 0 mps 748 mmHg 73%
    07:00 +15°C° 0 mm 0 mps 748 mmHg 70%
    08:00 +18°C° 0.1 mm 1 mps 748 mmHg 66%
    09:00 +20°C° 0.1 mm 1 mps 748 mmHg 62%
    10:00 +20°C° 0.1 mm 2 mps 748 mmHg 58%
    11:00 +20°C° 0.3 mm 2 mps 747 mmHg 58%
    12:00 +20°C° 0.3 mm 3 mps 747 mmHg 57%
    13:00 +20°C° 0.3 mm 3 mps 747 mmHg 57%
    14:00 +20°C° 0.3 mm 3 mps 747 mmHg 59%
    15:00 +19°C° 0.3 mm 3 mps 746 mmHg 60%
    16:00 +19°C° 0.3 mm 2 mps 746 mmHg 62%
    17:00 +17°C° 0 mm 2 mps 746 mmHg 68%
    18:00 +16°C° 0 mm 1 mps 746 mmHg 74%
    19:00 +13°C° 0 mm 0 mps 746 mmHg 80%
    20:00 +13°C° 0 mm 0 mps 746 mmHg 80%
    21:00 +14°C° 0 mm 1 mps 746 mmHg 80%
    22:00 +13°C° 0 mm 1 mps 746 mmHg 80%
    23:00 +13°C° 0 mm 1 mps 746 mmHg 80%
    Mostrar más